Orbital Elements at Epoch 2459200.5 (2020-Dec-17.0) TDB
Reference: JPL 18 (heliocentric ecliptic J2000)
Element | Value | Uncertainty (1-sigma) | Units |
e | .07274560694617456 | 4.2923e-08 | |
a | 3.064518536800926 | 2.359e-08 | au |
q | 2.84158827584354 | 1.421e-07 | au |
i | 9.852565979585654 | 5.9049e-06 | deg |
node | 177.4350775620311 | 2.7838e-05 | deg |
peri | 126.561024991205 | 5.2943e-05 | deg |
M | 352.1861535174727 | 4.3581e-05 | deg |
tp | 2459243.030861475669 (2021-Jan-28.53086148) | 0.00023723 | TDB |
period | 1959.484380129372 5.36 | 2.2625e-05 6.194e-08 | d yr |
n | .1837218013323646 | 2.1214e-09 | deg/d |
Q | 3.287448797758312 | 2.5306e-08 | au |
|
| | Orbit Determination Parameters
Additional Information
|